Regional Weather Roundup
Issued by NWS Upton, NY

Current Version | Previous Version | Graphics & Text | Print | Product List | Glossary Off
Versions: 1 2 3 4 5 6 7 8 9 10 11 12 13 14 15 16 17 18 19 20 21 22 23 24 25 26 27 28 29 30 31 32 33 34 35 36 37 38 39 40 41 42 43 44 45 46 47 48 49

000
ASUS41 KOKX 132104
RWROKX

REGIONAL WEATHER ROUNDUP
NATIONAL WEATHER SERVICE NEW YORK NY
400 PM EST SAT FEB 13 2016

NOTE: "FAIR" INDICATES FEW OR NO CLOUDS BELOW 12,000 FEET WITH NO
SIGNIFICANT WEATHER AND/OR OBSTRUCTIONS TO VISIBILITY.

NYZ071-072-176-178-NJZ106-104-132200-
NEW YORK CITY METRO AREA


CITY           SKY/WX    TMP DP  RH WIND       PRES   REMARKS
CENTRAL PARK   MOSUNNY   15 -13  27 NW14G28   30.16R WCI   0
LAGUARDIA APRT MOSUNNY   17  -4  39 NW32G41   30.15R WCI  -3
KENNEDY INTL   MOSUNNY   18 -14  23 W25G37    30.15R WCI   0
NEWARK/LIBERTY MOSUNNY   16 -16  23 NW25G39   30.17R WCI  -3
BRNX BOT. GARD   N/A     16 -13  27 NW26      30.13F WCI  -3
TETERBORO      MOSUNNY   15 -15  25 NW18G33   30.17R WCI  -2
$$

NYZ177-179-078>081-132200-
LONG ISLAND NEW YORK

CITY           SKY/WX    TMP DP  RH WIND       PRES   REMARKS
FARMINGDALE    MOSUNNY   16 -11  29 NW18G36   30.12R WCI   0
ISLIP          MOSUNNY   15 -10  32 NW29G44   30.08R WCI  -5
SHIRLEY        MOSUNNY   15  -9  33 NW21G32   30.08R WCI  -2
RIVERHEAD        N/A     18 -17  21 W15       30.03R WCI   3
WESTHAMPTON    MOSUNNY   15  -8  35 W28G37    30.05R WCI  -5
EAST HAMPTON   CLOUDY    17  -7  34 NW18G26   30.00R WCI   1
MONTAUK POINT    N/A     18   0  45 NW20G32   29.99R WCI   2
$$

NYZ052-065-067-132200-
HUDSON VALLEY

CITY           SKY/WX    TMP DP  RH WIND       PRES   REMARKS
WHITE PLAINS   MOSUNNY   11 -14  31 W25G38    30.10R WCI -10
NEWBURGH       MOSUNNY    7 -15  36 NW28G41   30.14R WCI -16
MONTGOMERY     SUNNY      8 -16  32 NW22G37   30.15R WCI -12
POUGHKEEPSIE   SUNNY     11 -17  27 W18G35    30.15R WCI  -7
ALBANY         PTSUNNY    1 -16  44 NW24G40   30.18R WCI -22
$$

NJZ001-105-106-008-010-013-015-019>022-104-132200-
NEW JERSEY

CITY           SKY/WX    TMP DP  RH WIND       PRES   REMARKS
NEWARK/LIBERTY MOSUNNY   16 -16  23 NW25G39   30.17R WCI  -3
TETERBORO      MOSUNNY   15 -15  25 NW18G33   30.17R WCI  -2
CALDWELL       SUNNY     13 -18  24 NW22G35   30.18R WCI  -6
MORRISTOWN     MOSUNNY   14 -13  29 NW16G30   30.18R WCI  -2
SOMERVILLE     MOSUNNY   16 -11  29 NW21G32   30.16R WCI  -1
SUSSEX         PTSUNNY    9 -14  34 NW13G25   30.17R WCI  -7
ANDOVER          N/A     10 -17  28 N13G25    30.16R WCI  -5
TRENTON        CLOUDY    18  -7  32 W15G26    30.18R WCI   4
MILLVILLE      MOSUNNY   19  -4  36 NW22G40   30.23R WCI   2
ATLANTIC CITY  CLOUDY    21  -6  30 W23G40    30.18R WCI   5
WRIGHTSTOWN    PTSUNNY   17 -10  29 NW21G30   30.15R WCI   0
TOMS RIVER     CLOUDY    19  -9  27 NW17G32   30.15R WCI   4
BELMAR         MOSUNNY   18  -8  32 NW23G36   30.13R WCI   0
$$

PAZ047>061-062-071-132200-
EASTERN PENNSYLVANIA

CITY           SKY/WX    TMP DP  RH WIND       PRES   REMARKS
PHILADELPHIA   PTSUNNY   18 -11  27 NW22G35   30.24R WCI   1
ALLENTOWN      PTSUNNY   13  -8  39 NW22G31   30.19R WCI  -6
SCRANTON       CLOUDY     6 -10  47 NW15G26   30.16R WCI -12
$$

CTZ002-004>006-009-010-012-RIZ004-006-007-MAZ004-011-015-132200-
SOUTHERN NEW ENGLAND
 IN CT

CITY           SKY/WX    TMP DP  RH WIND       PRES   REMARKS
BRADLEY INTL   MOSUNNY    7 -12  41 NW20G31   30.08R WCI -13
HARTFORD       MOSUNNY   11 -10  38 NW15G29   30.09R WCI  -5
DANBURY        MOSUNNY   10 -17  28 W21G31    30.09R WCI  -9
WTRBRY/OXFORD  MOSUNNY    9 -17  31 NW12G28   30.01R WCI  -6
BRIDGEPORT     SUNNY     14 -11  32 NW26G39   30.08R WCI  -6
MERIDEN        CLOUDY    12  -8  40 N21G28    30.06R WCI  -7
NEW HAVEN      PTSUNNY   15  -6  39 NW20G31   30.06R WCI  -2
CHESTER        FAIR      14  -6  41 NW16G30   30.01R WCI  -2
GROTON         PTSUNNY   15  -2  46 NW20G35   30.01R WCI  -2
WILLIMANTIC    SUNNY     12 -12  33 NW15G31   30.03R WCI  -4

 IN RI

CITY           SKY/WX    TMP DP  RH WIND       PRES   REMARKS
PROVIDENCE     MOSUNNY   14 -14  27 NW22G33   29.98R WCI  -4
BLOCK ISLAND   CLOUDY    18   0  45 NW15G38   29.93R WCI   3
WESTERLY       MOSUNNY   16  -8  34 NW14G22   29.99R WCI   2

 IN MA

CITY           SKY/WX    TMP DP  RH WIND       PRES   REMARKS
BOSTON         MOSUNNY   16 -10  31 W24G36    29.91R WCI  -2
WORCESTER      SUNNY      5 -15  39 W24G35    29.90R WCI -17
WESTFIELD      SUNNY      4 -14  43 NW25G35   30.08R WCI -19
PROVINCETOWN   PTSUNNY   20   1  43 W25G37    29.87R WCI   2
NANTUCKET      PTSUNNY   23   2  40 NW20G30   29.87R WCI   8
$$

ANZ330-335-338-340-345-350-353-355-132200-
COASTAL MARINE OBSERVATIONS


STATION/POSITION TIME  SKY/WX   TEMP    WIND        PRES    VSBY  WAVE
                                AIR SEA DIR/SP/G                  HT/PER
                 (UTC)          (F)     (DEG/KT/KT) (MB)    (MI)  (FT/S)
NY HARB ENTRANCE 1950            20 43  300/ 29/ 37 1018.4          6/ 6
4S FIRE IS       NOT AVBL
20S FIRE ISLAND  1950            20 41  310/ 29/ 39 1017.1          9/ 6
GREAT SOUTH BAY  NOT AVBL
23SW MTP         2050            20 44  290/ 29/ 35 1015.4          8/ 7
HUDSON CANYON    1950            25 48              1015.9         11/ 8
KINGS POINT      2000            16 35  360/ 29/ 36 1019.1
EXECUTION ROCKS  NOT AVBL
CENTRAL LI SOUND 2000            19     280/ 27/ 35   N/A           6/ 6
EASTERN LI SOUND 2000            21 40  320/ 23/ 31   N/A
ROBBINS REEF     2000            15     290/ 33/ 40 1018.8
$$


>>>>>>>>>>>>>>>>>>>>>>>>>>>> KEY <<<<<<<<<<<<<<<<<<<<<<<<<<<
>                                                          <
>     SKY/WX - SKY CONDITION/PRESENT WEATHER               <
>     TMP    - TEMPERATURE IN FAHRENHEIT                   <
>     DP     - DEWPOINT IN FAHRENHEIT                      <
>     RH     - RELATIVE HUMIDITY IN PERCENT                <
>     WIND   - DIRECTION AND SPEED IN MPH                  <
>     PRES   - MEAN SEA LEVEL PRESSURE IN INCHES OF HG     <
>     WCI    - WIND CHILL INDEX                            <
>     VSB    - VISIBILITY IN MILES                         <
>     HX     - HEAT INDEX                                  <
>     TC     - TEMPERATURE IN CELSIUS                      <
>     VRB    - VARIABLE WIND DIRECTION                     <
>                                                          <
>>>>>>>>>>>>>>>>>>>>>>>>>>>> KEY <<<<<<<<<<<<<<<<<<<<<<<<<<<





USA.gov is the U.S. government's official web portal to all federal, state and local government web resources and services.